FW9947 Weather Reports


time (UTC)temp
C
wind
direction
speed
KPH
gust
KPH
rain 1hr
cm
rain 24hr
cm
rain mn
cm
humidity
%
barometer
mb
20260505162351 14 298 8.0 8.0 0.13 3.71 3.71 99 1021.4
20260505161849 13 6 0.0 0.0 0.61 3.71 3.71 99 1021.2
20260505161345 13 355 0.0 0.0 1.07 3.68 3.68 99 1020.8
20260505160843 14 332 6.4 9.7 0.79 3.63 3.63 99 1021.3
20260505160341 14 332 11.3 14.5 0.18 3.51 3.51 99 1021.4
20260505153319 13 7 6.4 8.0 0.61 3.48 3.48 99 1020.5
20260505152816 13 353 1.6 3.2 0.13 3.38 3.38 99 1020.7
20260505152313 14 7 0.0 0.0 0.43 3.38 3.38 99 1020.6
20260505151808 13 12 0.0 0.0 0.43 3.38 3.38 99 1020.5
20260505151305 14 352 0.0 0.0 0.18 3.30 3.30 99 1020.7
20260505150802 13 4 1.6 1.6 0.30 3.30 3.30 99 1020.7
20260505150259 14 21 0.0 0.0 0.48 3.30 3.30 99 1020.5
20260505140223 14 338 4.8 8.0 0.00 3.15 3.15 99 1022.0
20260505130147 13 333 11.3 12.9 0.61 3.02 3.02 99 1022.6
20260505124637 13 320 1.6 4.8 0.61 2.84 2.84 99 1022.6
20260505124133 13 246 4.8 9.7 0.79 2.79 2.79 99 1022.3
20260505123629 13 287 4.8 8.0 0.89 2.74 2.74 99 1022.5
20260505123126 13 274 3.2 3.2 0.61 2.67 2.67 99 1022.3
20260505122623 13 215 4.8 8.0 0.79 2.62 2.62 99 1022.0
20260505122120 14 273 6.4 11.3 0.61 2.57 2.57 99 1022.2
20260505121617 14 173 11.3 14.5 0.61 2.49 2.49 99 1022.5
20260505121114 15 124 3.2 8.0 1.98 2.46 2.46 99 1022.0
20260505120610 15 327 6.4 14.5 4.45 2.41 2.41 98 1021.6
20260505120106 16 326 8.0 14.5 5.46 2.16 2.16 98 1021.4
20260505115600 17 218 3.2 3.2 3.07 1.65 1.65 96 1021.8
20260505115058 18 302 4.8 4.8 0.79 1.24 1.24 90 1021.1
20260505114555 19 322 4.8 4.8 0.00 1.12 1.12 85 1021.0
20260505114051 20 334 3.2 3.2 0.00 1.12 1.12 82 1020.6
20260505113547 20 314 3.2 4.8 0.00 1.12 1.12 81 1020.7
20260505113044 20 299 6.4 8.0 0.00 1.12 1.12 80 1020.7
20260505112540 20 319 6.4 9.7 0.00 1.12 1.12 79 1020.4
20260505112038 20 319 11.3 16.1 0.00 1.12 1.12 79 1020.7
20260505111532 20 18 6.4 8.0 0.00 1.12 1.12 79 1020.5
20260505111029 20 349 6.4 11.3 0.00 1.12 1.12 79 1020.6
20260505110525 20 13 8.0 9.7 0.00 1.12 1.12 78 1020.6
20260505101958 20 3 16.1 17.7 0.00 1.12 1.12 77 1021.9
20260505101455 20 7 11.3 16.1 0.00 1.12 1.12 78 1022.5
20260505100952 20 343 12.9 16.1 0.00 1.12 1.12 78 1022.7
20260505100449 20 31 16.1 16.1 0.00 1.12 1.12 78 1022.6
20260505095945 20 322 22.5 32.2 0.00 1.12 1.12 77 1022.7
20260505095442 20 356 14.5 14.5 0.00 1.12 1.12 77 1022.7
20260505094938 20 5 22.5 33.8 0.00 1.12 1.12 77 1023.3
20260505094435 20 340 17.7 22.5 0.00 1.12 1.12 77 1022.9
20260505093931 20 8 8.0 11.3 0.00 1.12 1.12 78 1022.7
20260505093428 20 355 14.5 20.9 0.00 1.12 1.12 79 1023.2
20260505092925 20 345 19.3 24.1 0.00 1.12 1.12 79 1023.3
20260505092423 20 7 12.9 16.1 0.00 1.12 1.12 79 1023.3
20260505091920 20 13 17.7 22.5 0.00 1.12 1.12 77 1023.5
20260505091418 20 31 6.4 9.7 0.00 1.12 1.12 79 1023.5
20260505090916 19 25 11.3 12.9 0.00 1.12 1.12 80 1023.7
20260505090414 19 3 19.3 24.1 0.00 1.12 1.12 80 1023.7
20260505085911 18 13 14.5 17.7 0.00 1.12 1.12 81 1023.7
20260505085409 18 353 11.3 12.9 0.00 1.12 1.12 81 1024.0
20260505084906 18 35 6.4 8.0 0.00 1.12 1.12 82 1024.2
20260505084405 18 6 8.0 11.3 0.00 1.12 1.12 83 1024.2
20260505083902 18 2 16.1 17.7 0.00 1.12 1.12 82 1024.7
20260505083359 18 22 8.0 12.9 0.00 1.12 1.12 82 1024.7
20260505082855 18 342 11.3 20.9 0.00 1.12 1.12 82 1024.5
20260505082351 18 323 11.3 14.5 0.00 1.12 1.12 83 1024.5
20260505081848 18 316 6.4 9.7 0.00 1.12 1.12 83 1024.7
20260505081345 18 5 4.8 4.8 0.00 1.12 1.12 83 1024.8
20260505080842 18 339 8.0 9.7 0.00 1.12 1.12 85 1024.9
20260505080338 17 351 9.7 12.9 0.00 1.12 1.12 86 1024.8
20260505075833 17 5 11.3 12.9 0.00 1.12 1.12 89 1025.2
20260505075330 16 5 6.4 11.3 0.00 1.12 1.12 95 1025.0
20260505074828 16 0 6.4 8.0 0.00 1.12 1.12 99 1025.1
20260505074325 16 358 9.7 12.9 0.00 1.12 1.12 99 1025.2
20260505073822 16 22 4.8 4.8 0.00 1.12 1.12 99 1025.1
20260505073320 16 96 4.8 8.0 0.00 1.12 1.12 99 1025.3
20260505072817 16 81 4.8 8.0 0.00 1.12 1.12 99 1025.5
20260505072313 15 35 0.0 0.0 0.00 1.12 1.12 99 1025.5
20260505071809 16 28 0.0 0.0 0.00 1.12 1.12 99 1025.7
20260505071306 15 28 1.6 3.2 0.00 1.12 1.12 99 1025.5
20260505070804 15 77 0.0 0.0 0.00 1.12 1.12 99 1025.7
20260505070300 15 77 0.0 0.0 0.00 1.12 1.12 99 1025.7
20260505065755 15 89 0.0 0.0 0.00 1.12 1.12 99 1025.7
20260505065252 15 52 0.0 0.0 0.00 1.12 1.12 99 1026.0
20260505064749 15 70 0.0 0.0 0.00 1.12 1.12 99 1025.7
20260505064246 14 41 0.0 0.0 0.00 1.12 1.12 99 1025.8
20260505063744 14 41 0.0 0.0 0.00 1.12 1.12 99 1025.9
20260505063240 14 51 0.0 0.0 0.00 1.12 1.12 99 1026.0
20260505062736 14 36 0.0 0.0 0.00 1.12 1.12 99 1025.8
20260505062234 14 19 0.0 0.0 0.00 1.12 1.12 99 1026.0
20260505061731 14 14 0.0 0.0 0.00 1.12 1.12 99 1025.8
20260505061229 15 23 0.0 0.0 0.00 1.12 1.12 99 1025.8
20260505060726 15 28 0.0 0.0 0.00 1.12 1.12 99 1025.8
20260505060223 14 19 0.0 0.0 0.00 1.12 1.12 99 1025.8
20260505055718 14 13 0.0 0.0 0.00 1.12 1.12 99 1025.9
20260505055215 14 94 0.0 0.0 0.00 1.12 1.12 99 1025.9
20260505054713 14 87 0.0 0.0 0.00 1.12 1.12 99 1025.8
20260505054210 14 87 0.0 0.0 0.00 1.12 1.12 99 1025.7
20260505053708 14 87 0.0 0.0 0.00 1.12 1.12 99 1025.8
20260505053204 14 87 0.0 0.0 0.00 1.12 1.12 99 1025.6
20260505052702 13 87 0.0 0.0 0.00 1.12 1.12 99 1025.9
20260505052158 13 87 0.0 0.0 0.00 1.12 1.12 99 1026.2
20260505051656 13 87 0.0 0.0 0.00 1.12 1.12 99 1025.9
20260505051154 13 87 0.0 0.0 0.00 1.12 1.12 99 1025.8
20260505050651 13 87 0.0 0.0 0.00 1.12 1.12 99 1026.0
20260505050149 13 87 0.0 0.0 0.00 1.12 1.12 99 1025.8
20260505041619 13 78 0.0 0.0 0.00 1.12 1.12 99 1025.9
20260505041116 13 76 0.0 0.0 0.00 1.12 1.12 99 1026.2
20260505040613 13 70 0.0 0.0 0.00 1.12 1.12 99 1026.3
20260505040110 13 37 0.0 0.0 0.13 1.12 1.12 99 1026.0
20260505035607 13 20 0.0 0.0 0.30 1.12 1.12 99 1025.8
20260505035103 13 45 0.0 0.0 0.18 1.09 1.09 99 1025.8
20260505034600 13 33 0.0 0.0 0.18 1.09 1.09 99 1025.9
20260505034056 13 40 0.0 0.0 0.00 1.07 1.07 99 1026.5
20260505033553 13 56 0.0 0.0 0.00 1.07 1.07 99 1025.9
20260505033052 13 50 0.0 0.0 0.00 1.07 1.07 99 1025.8
20260505032549 13 5 0.0 0.0 0.00 1.07 1.07 99 1025.9
20260505032045 13 11 0.0 0.0 0.00 1.07 1.07 99 1025.8
20260505031543 13 8 0.0 0.0 0.00 1.07 1.07 99 1026.2
20260505031039 13 108 0.0 0.0 0.00 1.07 1.07 99 1025.7
20260505030536 13 99 0.0 0.0 0.00 1.07 1.07 99 1025.8
20260505030032 13 116 0.0 0.0 0.00 1.07 1.07 99 1025.7
20260505025528 13 116 0.0 0.0 0.00 1.07 1.07 99 1025.6
20260505025027 13 223 0.0 0.0 0.00 1.07 1.07 99 1025.8
20260505024524 13 117 0.0 0.0 0.00 1.07 1.07 99 1025.7
20260505024021 13 129 0.0 0.0 0.00 1.07 1.07 99 1025.7
20260505023518 13 114 0.0 0.0 0.00 1.07 1.07 99 1025.9
20260505023015 13 50 0.0 0.0 0.00 1.07 1.07 99 1025.8
20260505022513 13 52 0.0 0.0 0.00 1.07 1.07 99 1025.6
20260505022010 13 52 0.0 1.6 0.00 1.07 1.07 99 1025.8
20260505021506 13 78 0.0 0.0 0.13 1.07 1.07 99 1026.0
20260505021003 13 47 1.6 1.6 0.30 1.07 1.07 99 1026.2
20260505020457 13 57 1.6 1.6 0.36 1.04 1.04 99 1025.9
20260505015954 13 24 0.0 0.0 0.48 1.02 1.02 99 1026.5
20260505015452 13 24 1.6 3.2 0.43 0.99 0.99 99 1026.6
20260505014949 13 351 3.2 4.8 0.48 0.97 0.97 99 1027.3
20260505014446 13 359 3.2 3.2 0.48 0.91 0.91 98 1027.2
20260505013943 13 320 8.0 11.3 0.43 0.89 0.89 98 1027.4
20260505013440 13 322 11.3 12.9 0.61 0.84 0.84 98 1027.4
20260505012937 13 260 1.6 3.2 0.79 0.81 0.81 98 1027.4
20260505012435 13 226 1.6 1.6 0.79 0.76 0.76 98 1027.5
20260505011932 13 222 6.4 11.3 0.89 0.69 0.69 98 1027.8
20260505011428 13 182 4.8 8.0 0.89 0.64 0.64 97 1027.7
20260505010925 13 334 6.4 8.0 1.02 0.56 0.56 97 1027.8
20260505010420 13 309 1.6 3.2 1.55 0.48 0.48 96 1028.0
20260505005917 13 212 4.8 8.0 2.34 0.38 0.38 96 1027.7
20260505005414 14 207 4.8 11.3 1.37 0.23 0.23 94 1027.5
20260505004911 15 259 8.0 11.3 0.00 0.00 0.00 87 1027.7
20260505004408 16 275 8.0 11.3 0.00 0.00 0.00 85 1027.4
20260505003905 16 299 1.6 1.6 0.00 0.00 0.00 85 1026.6
20260505003402 16 341 4.8 8.0 0.00 0.00 0.00 84 1025.9
20260505002858 16 22 3.2 3.2 0.00 0.00 0.00 84 1025.9
20260505002354 16 26 1.6 1.6 0.00 0.00 0.00 85 1026.2
20260505001853 16 32 0.0 1.6 0.00 0.00 0.00 86 1026.0
20260505001349 16 28 1.6 1.6 0.00 0.00 0.00 86 1026.2
20260505000847 16 28 0.0 0.0 0.00 0.00 0.00 87 1026.2
20260505000344 16 28 0.0 0.0 0.00 0.00 0.00 87 1026.2
20260504235841 16 28 0.0 0.0 0.00 0.00 0.00 87 1026.3
20260504235338 16 28 0.0 0.0 0.00 0.00 0.00 86 1026.3
20260504234835 16 28 0.0 0.0 0.00 0.00 0.00 86 1026.3
20260504234332 16 28 0.0 0.0 0.00 0.00 0.00 86 1026.2
20260504233829 16 28 0.0 0.0 0.00 0.00 0.00 86 1026.4
20260504233324 16 26 0.0 0.0 0.00 0.00 0.00 85 1026.5
20260504232821 16 32 0.0 0.0 0.00 0.00 0.00 84 1026.4
20260504232319 16 23 0.0 0.0 0.00 0.00 0.00 84 1026.4
20260504231815 16 23 0.0 0.0 0.00 0.00 0.00 85 1026.5
20260504231312 16 25 0.0 0.0 0.00 0.00 0.00 85 1026.3
20260504230808 16 26 0.0 0.0 0.00 0.00 0.00 86 1026.4
20260504230306 16 26 0.0 0.0 0.00 0.00 0.00 86 1026.2
20260504225805 16 26 0.0 0.0 0.00 0.00 0.00 85 1026.4
20260504225301 16 26 0.0 0.0 0.00 0.00 0.00 85 1026.5
20260504224758 16 26 0.0 0.0 0.00 0.00 0.00 86 1026.5
20260504224255 16 26 0.0 0.0 0.00 0.00 0.00 85 1026.6
20260504223751 16 26 0.0 0.0 0.00 0.00 0.00 84 1026.6
20260504223247 16 26 0.0 0.0 0.00 0.00 0.00 83 1026.7
20260504222744 16 26 0.0 0.0 0.00 0.00 0.00 82 1026.5
20260504222241 17 26 0.0 0.0 0.00 0.00 0.00 82 1026.8
20260504221739 17 20 0.0 0.0 0.00 0.00 0.00 80 1026.7
20260504221236 17 21 1.6 1.6 0.00 0.00 0.00 80 1027.0
20260504220732 17 20 1.6 1.6 0.00 0.00 0.00 80 1027.3
20260504220229 17 23 0.0 1.6 0.00 0.00 0.00 80 1027.3
20260504215726 17 20 0.0 0.0 0.00 0.00 0.00 80 1027.1
20260504215223 17 19 1.6 1.6 0.00 0.00 0.00 80 1027.1
20260504214719 17 23 1.6 1.6 0.00 0.00 0.00 80 1027.2
20260504214215 17 18 1.6 1.6 0.00 0.00 0.00 80 1027.3
20260504213712 17 12 1.6 1.6 0.00 0.00 0.00 81 1027.4
20260504213209 17 18 1.6 1.6 0.00 0.00 0.00 81 1027.5
20260504212706 17 15 1.6 1.6 0.00 0.00 0.00 82 1027.4
20260504212203 17 10 1.6 1.6 0.00 0.00 0.00 81 1027.8
20260504211700 17 29 3.2 3.2 0.00 0.00 0.00 81 1027.4
20260504211155 17 21 4.8 4.8 0.00 0.00 0.00 80 1027.7
20260504210654 17 1 4.8 4.8 0.00 0.00 0.00 80 1027.4
20260504210150 17 14 6.4 8.0 0.00 0.00 0.00 80 1027.8
20260504205647 17 9 4.8 4.8 0.00 0.00 0.00 80 1027.8
20260504205144 17 15 3.2 3.2 0.00 0.00 0.00 80 1027.8
20260504204643 17 21 4.8 4.8 0.00 0.00 0.00 80 1027.9
20260504204142 17 6 4.8 4.8 0.00 0.00 0.00 80 1028.0
20260504203640 17 8 6.4 8.0 0.00 0.00 0.00 80 1028.1
20260504203137 17 355 4.8 8.0 0.00 0.00 0.00 81 1028.0
20260504202637 17 5 4.8 4.8 0.00 0.00 0.00 81 1028.1
20260504202134 17 11 4.8 4.8 0.00 0.00 0.00 81 1028.1
20260504201631 17 356 4.8 4.8 0.00 0.00 0.00 82 1028.2
20260504201129 17 0 4.8 8.0 0.00 0.00 0.00 82 1028.1
20260504200626 17 343 4.8 4.8 0.00 0.00 0.00 82 1028.3
20260504200122 17 354 4.8 8.0 0.00 0.00 0.00 82 1028.3
20260504195618 17 351 4.8 4.8 0.00 0.00 0.00 81 1028.1
20260504195115 18 6 4.8 4.8 0.00 0.00 0.00 81 1028.5
20260504194612 18 351 6.4 8.0 0.00 0.00 0.00 81 1028.5
20260504194107 18 356 3.2 3.2 0.00 0.00 0.00 81 1028.6
20260504193604 18 9 4.8 4.8 0.00 0.00 0.00 80 1028.3
20260504193103 18 8 3.2 4.8 0.00 0.00 0.00 80 1028.3
20260504192600 18 323 3.2 8.0 0.00 0.00 0.00 81 1028.2
20260504192058 18 341 4.8 4.8 0.00 0.00 0.00 81 1028.1
20260504191556 18 338 3.2 3.2 0.00 0.00 0.00 81 1028.2
20260504191052 18 312 4.8 4.8 0.00 0.00 0.00 80 1028.2
20260504190548 18 332 3.2 3.2 0.00 0.00 0.00 80 1028.3
20260504190044 18 338 3.2 3.2 0.00 0.00 0.00 80 1028.0
20260504185542 18 345 3.2 3.2 0.00 0.00 0.00 80 1028.0
20260504185038 18 353 3.2 4.8 0.00 0.00 0.00 80 1028.1
20260504184534 18 357 1.6 3.2 0.00 0.00 0.00 81 1028.1
20260504184029 18 10 3.2 3.2 0.00 0.00 0.00 81 1028.1
20260504183526 18 6 1.6 1.6 0.00 0.00 0.00 80 1027.9
20260504183025 18 3 4.8 4.8 0.00 0.00 0.00 80 1028.0
20260504182521 18 338 1.6 3.2 0.00 0.00 0.00 80 1028.1
20260504182018 18 335 1.6 1.6 0.00 0.00 0.00 80 1028.5
20260504181515 18 341 4.8 4.8 0.00 0.00 0.00 79 1028.5
20260504181014 18 345 3.2 3.2 0.00 0.00 0.00 79 1028.1
20260504180512 18 352 1.6 1.6 0.00 0.00 0.00 79 1028.3
20260504180011 18 333 1.6 3.2 0.00 0.00 0.00 79 1028.2
20260504175508 19 351 3.2 3.2 0.00 0.00 0.00 78 1028.1
20260504175005 19 323 3.2 3.2 0.00 0.00 0.00 78 1028.0
20260504174503 19 320 3.2 3.2 0.00 0.00 0.00 78 1028.1
20260504173959 19 336 1.6 3.2 0.00 0.00 0.00 77 1028.3
20260504173456 20 348 1.6 1.6 0.00 0.00 0.00 77 1028.5
20260504172953 20 348 3.2 3.2 0.00 0.00 0.00 76 1028.0
20260504172449 20 355 8.0 11.3 0.00 0.00 0.00 76 1027.9
20260504171946 19 337 4.8 8.0 0.00 0.00 0.00 77 1028.1
20260504171443 19 340 3.2 3.2 0.00 0.00 0.00 78 1027.9
20260504170940 19 354 3.2 3.2 0.00 0.00 0.00 77 1028.0
20260504170436 19 339 3.2 3.2 0.00 0.00 0.00 77 1028.1